Tracking 21612 objects as of 19-Oct-2020
HD Live streaming from Space Station
objects crossing your sky now

SL-12 DEB

Track SL-12 DEB now!
10-day predictions


NORAD ID: 43607
Int'l Code: 2010-007AJ
Perigee: 231.4 km
Apogee: 14,491.4 km
Inclination: 65.2 °
Period: 266.9 minutes
Semi major axis: 13732 km
RCS: Unknown
Launch date: March 1, 2010
Source: Commonwealth of Independent States (former USSR) (CIS)
Launch site: TYURATAM MISSILE AND SPACE COMPLEX (TTMTR)

Note: This is SATELLITE DEBRIS
aabbcc
Your satellite tracking list
Your tracking list is empty




NASA's NSSDC Master Catalog

Two Line Element Set (TLE):
1 43607U 10007AJ  20266.68734432 +.00140094 +00000-0 +54167-2 0  9994
2 43607 065.1655 166.4698 5192073 346.8047 003.6384 05.39490173038847
Source of the keplerian elements: AFSPC